timestamp,surface_pressure_avg,surface_temp_avg,battery_voltage,lat,long
2020-10-30 00:09:01+00:00,325.9514,10.78,12.73,47.84626,-54.09684
2020-10-30 00:19:01+00:00,323.8463,10.79,12.73,47.84626,-54.09684
2020-10-30 00:29:01+00:00,319.683,10.8,12.73,47.84626,-54.09684
2020-10-30 00:39:01+00:00,319.2647,10.8,12.73,47.84626,-54.09684
2020-10-30 00:49:01+00:00,313.2047,10.8,12.73,47.84626,-54.09684
2020-10-30 00:59:01+00:00,305.403,10.8,12.73,47.84626,-54.09684
2020-10-30 01:09:01+00:00,299.9897,10.79,12.73,47.84626,-54.09684
2020-10-30 01:19:01+00:00,296.3446,10.76,12.73,47.84626,-54.09684
2020-10-30 01:29:01+00:00,287.5247,10.73,12.73,47.84626,-54.09684
2020-10-30 01:39:01+00:00,273.1864,10.7,12.73,47.84626,-54.09684
2020-10-30 01:49:01+00:00,265.9431,10.7,12.73,47.84626,-54.09684
2020-10-30 01:59:01+00:00,261.8364,10.7,12.73,47.84626,-54.09684
2020-10-30 02:09:01+00:00,251.803,10.65,12.73,47.84626,-54.09684
2020-10-30 02:19:01+00:00,240.8814,10.6,12.73,47.84626,-54.09684
2020-10-30 02:29:01+00:00,237.3198,10.6,12.73,47.84626,-54.09684
2020-10-30 02:39:01+00:00,234.4531,10.61,12.73,47.84626,-54.09684
2020-10-30 02:49:01+00:00,226.5547,10.64,12.73,47.84626,-54.09684
2020-10-30 02:59:01+00:00,219.8648,10.68,12.73,47.84626,-54.09684
2020-10-30 03:09:01+00:00,217.5981,10.69,12.73,47.84626,-54.09684
2020-10-30 03:19:01+00:00,210.6281,10.66,12.65,47.84626,-54.09684
2020-10-30 03:29:01+00:00,202.5598,10.6,12.65,47.84626,-54.09684
2020-10-30 03:39:01+00:00,200.0798,10.6,12.65,47.84626,-54.09684
2020-10-30 03:49:01+00:00,196.7998,10.6,12.65,47.84626,-54.09684
2020-10-30 03:59:01+00:00,192.9014,10.6,12.65,47.84626,-54.09684
2020-10-30 04:09:01+00:00,192.5248,10.6,12.65,47.84626,-54.09684
2020-10-30 04:19:01+00:00,190.4098,10.63,12.65,47.84626,-54.09684
2020-10-30 04:29:01+00:00,187.2665,10.62,12.65,47.84626,-54.09684
2020-10-30 04:39:01+00:00,190.0881,10.62,12.65,47.84626,-54.09684
2020-10-30 04:49:01+00:00,194.1564,10.6,12.65,47.84626,-54.09684
2020-10-30 04:59:01+00:00,194.6415,10.6,12.65,47.84626,-54.09684
2020-10-30 05:09:01+00:00,198.0681,10.6,12.65,47.84626,-54.09684
2020-10-30 05:19:01+00:00,204.8514,10.6,12.65,47.84626,-54.09684
2020-10-30 05:29:01+00:00,206.4315,10.59,12.65,47.84626,-54.09684
2020-10-30 05:39:01+00:00,206.3898,10.5,12.65,47.84626,-54.09684
2020-10-30 05:49:01+00:00,210.5781,10.4,12.65,47.84626,-54.09684
2020-10-30 05:59:01+00:00,217.6648,10.39,12.65,47.84626,-54.09684
2020-10-30 06:09:01+00:00,220.5298,10.3,12.65,47.84626,-54.09684
2020-10-30 06:19:01+00:00,222.6264,10.26,12.65,47.84626,-54.09684
2020-10-30 06:29:01+00:00,225.7964,10.22,12.65,47.84626,-54.09684
2020-10-30 06:39:01+00:00,233.4198,10.23,12.65,47.84626,-54.09684
2020-10-30 06:49:01+00:00,240.7898,10.22,12.65,47.84626,-54.09684
2020-10-30 06:59:01+00:00,244.1964,10.2,12.65,47.84626,-54.09684
2020-10-30 07:09:01+00:00,246.1164,10.19,12.65,47.84626,-54.09684
2020-10-30 07:19:01+00:00,254.0548,10.18,12.65,47.84626,-54.09684
2020-10-30 07:29:01+00:00,260.2864,10.11,12.65,47.84626,-54.09684
2020-10-30 07:39:01+00:00,260.7931,10.1,12.65,47.84626,-54.09684
2020-10-30 07:49:01+00:00,261.9297,10.16,12.65,47.84626,-54.09684
2020-10-30 07:59:01+00:00,269.778,10.2,12.65,47.84626,-54.09684
2020-10-30 08:09:01+00:00,274.5447,10.2,12.65,47.84626,-54.09684
2020-10-30 08:19:01+00:00,275.5314,10.29,12.65,47.84626,-54.09684
2020-10-30 08:29:01+00:00,280.6263,10.46,12.65,47.84626,-54.09684
2020-10-30 08:39:01+00:00,288.1097,10.59,12.65,47.84626,-54.09684
2020-10-30 08:49:01+00:00,291.8181,10.65,12.65,47.84626,-54.09684
2020-10-30 08:59:01+00:00,297.1614,10.7,12.65,47.84626,-54.09684
2020-10-30 09:09:01+00:00,303.6647,10.7,12.65,47.84626,-54.09684
2020-10-30 09:19:01+00:00,312.8497,10.7,12.65,47.84626,-54.09684
2020-10-30 09:29:01+00:00,319.5597,10.7,12.65,47.84626,-54.09684
2020-10-30 09:39:01+00:00,323.1146,10.7,12.65,47.84626,-54.09684
2020-10-30 09:49:01+00:00,328.0345,10.5,12.65,47.84626,-54.09684
2020-10-30 09:59:01+00:00,334.6329,10.5,12.65,47.84626,-54.09684
2020-10-30 10:09:01+00:00,340.7762,10.49,12.65,47.84626,-54.09684
2020-10-30 10:19:01+00:00,339.673,10.4,12.65,47.84626,-54.09684
2020-10-30 10:29:01+00:00,340.5029,10.34,12.65,47.84626,-54.09684
2020-10-30 10:39:01+00:00,343.8813,10.3,12.65,47.84626,-54.09684
2020-10-30 10:49:01+00:00,346.598,10.3,12.65,47.84626,-54.09684
2020-10-30 10:59:01+00:00,346.108,10.3,12.65,47.84626,-54.09684
2020-10-30 11:09:01+00:00,347.963,10.3,12.65,47.84626,-54.09684
2020-10-30 11:19:01+00:00,345.3697,10.39,12.65,47.84626,-54.09684
2020-10-30 11:29:01+00:00,344.0213,10.4,12.65,47.84626,-54.09684
2020-10-30 11:39:01+00:00,344.2913,10.39,12.65,47.84626,-54.09684
2020-10-30 11:49:01+00:00,346.2379,10.32,12.65,47.84626,-54.09684
2020-10-30 11:59:01+00:00,340.3147,10.3,12.65,47.84626,-54.09684
2020-10-30 12:09:01+00:00,333.5063,10.0,12.65,47.84626,-54.09684
2020-10-30 12:19:01+00:00,337.1613,9.6,13.53,47.84626,-54.09684
2020-10-30 12:29:01+00:00,332.8097,9.5,13.53,47.84626,-54.09684
2020-10-30 12:39:01+00:00,327.788,9.33,13.53,47.84626,-54.09684
2020-10-30 12:49:01+00:00,329.293,9.3,13.53,47.84626,-54.09684
2020-10-30 12:59:01+00:00,327.663,9.3,13.53,47.84626,-54.09684
2020-10-30 13:09:01+00:00,318.0913,9.2,13.53,47.84626,-54.09684
2020-10-30 13:19:01+00:00,309.613,9.2,14.88,47.84626,-54.09684
2020-10-30 13:29:01+00:00,313.598,9.2,14.88,47.84626,-54.09684
2020-10-30 13:39:01+00:00,312.748,9.2,14.88,47.84626,-54.09684
2020-10-30 13:49:01+00:00,298.253,9.2,14.88,47.84626,-54.09684
2020-10-30 13:59:01+00:00,289.20799999999997,9.2,14.88,47.84626,-54.09684
2020-10-30 14:09:01+00:00,283.8847,9.22,14.88,47.84626,-54.09684
2020-10-30 14:19:01+00:00,275.0564,9.2,14.8,47.84626,-54.09684
2020-10-30 14:29:01+00:00,257.1148,9.18,14.8,47.84626,-54.09684
2020-10-30 14:39:01+00:00,247.6564,9.2,14.8,47.84626,-54.09684
2020-10-30 14:49:01+00:00,242.0631,9.2,14.8,47.84626,-54.09684
2020-10-30 14:59:01+00:00,237.5764,9.2,14.8,47.84626,-54.09684
2020-10-30 15:09:01+00:00,231.5781,9.2,14.8,47.84626,-54.09684
2020-10-30 15:19:01+00:00,226.9331,9.2,14.64,47.84626,-54.09684
2020-10-30 15:29:01+00:00,218.7047,9.2,14.64,47.84626,-54.09684
2020-10-30 15:39:01+00:00,210.5664,9.2,14.64,47.84626,-54.09684
2020-10-30 15:49:01+00:00,204.0398,9.2,14.64,47.84626,-54.09684
2020-10-30 15:59:01+00:00,197.2464,9.2,14.64,47.84626,-54.09684
2020-10-30 16:09:01+00:00,191.2898,9.2,14.64,47.84626,-54.09684
2020-10-30 16:19:01+00:00,191.0915,9.26,14.56,47.84626,-54.09684
2020-10-30 16:29:01+00:00,193.7548,9.29,14.56,47.84626,-54.09684
2020-10-30 16:39:01+00:00,191.9148,9.3,14.56,47.84626,-54.09684
2020-10-30 16:49:01+00:00,189.7965,9.32,14.56,47.84626,-54.09684
2020-10-30 16:59:01+00:00,192.3531,9.39,14.56,47.84626,-54.09684
2020-10-30 17:09:01+00:00,195.8164,9.4,14.56,47.84626,-54.09684
2020-10-30 17:19:01+00:00,204.0281,9.5,14.32,47.84626,-54.09684
2020-10-30 17:29:01+00:00,210.4114,9.61,14.32,47.84626,-54.09684
2020-10-30 17:39:01+00:00,208.1731,9.79,14.32,47.84626,-54.09684
2020-10-30 17:49:01+00:00,204.1082,9.82,14.32,47.84626,-54.09684
2020-10-30 17:59:01+00:00,212.9081,9.86,14.32,47.84626,-54.09684
2020-10-30 18:09:01+00:00,214.6548,9.85,14.32,47.84626,-54.09684
2020-10-30 18:19:01+00:00,217.2047,9.8,14.24,47.84626,-54.09684
2020-10-30 18:29:01+00:00,229.9131,9.86,14.24,47.84626,-54.09684
2020-10-30 18:39:01+00:00,235.8064,9.9,14.24,47.84626,-54.09684
2020-10-30 18:49:01+00:00,236.7831,9.9,14.24,47.84626,-54.09684
2020-10-30 18:59:01+00:00,245.0965,9.87,14.24,47.84626,-54.09684
2020-10-30 19:09:01+00:00,253.7531,9.79,14.24,47.84626,-54.09684
2020-10-30 19:19:01+00:00,256.9048,9.8,13.84,47.84626,-54.09684
2020-10-30 19:29:01+00:00,254.5298,9.8,13.84,47.84626,-54.09684
2020-10-30 19:39:01+00:00,257.5364,9.7,13.84,47.84626,-54.09684
2020-10-30 19:49:01+00:00,264.0647,9.8,13.84,47.84626,-54.09684
2020-10-30 19:59:01+00:00,271.6248,9.8,13.84,47.84626,-54.09684
2020-10-30 20:09:01+00:00,274.7597,9.5,13.84,47.84626,-54.09684
2020-10-30 20:19:01+00:00,279.7864,9.64,13.53,47.84626,-54.09684
2020-10-30 20:29:01+00:00,279.9664,9.65,13.53,47.84626,-54.09684
2020-10-30 20:39:01+00:00,285.6379,9.8,13.53,47.84626,-54.09684
2020-10-30 20:49:01+00:00,291.233,9.75,13.53,47.84626,-54.09684
2020-10-30 20:59:01+00:00,299.1246,9.7,13.53,47.84626,-54.09684
2020-10-30 21:09:01+00:00,303.8314,9.7,13.53,47.84626,-54.09684
2020-10-30 21:19:01+00:00,311.488,9.7,13.21,47.84626,-54.09684
2020-10-30 21:29:01+00:00,319.3848,9.78,13.21,47.84626,-54.09684
2020-10-30 21:39:01+00:00,326.6614,9.7,13.21,47.84626,-54.09684
2020-10-30 21:49:01+00:00,342.1996,9.6,13.21,47.84626,-54.09684
2020-10-30 21:59:01+00:00,362.2513,9.6,13.21,47.84626,-54.09684
2020-10-30 22:09:01+00:00,364.9996,9.5,13.21,47.84626,-54.09684
2020-10-30 22:19:01+00:00,361.5613,9.56,12.81,47.84626,-54.09684
2020-10-30 22:29:01+00:00,364.0829,9.6,12.81,47.84626,-54.09684
2020-10-30 22:39:01+00:00,369.2179,9.6,12.81,47.84626,-54.09684
2020-10-30 22:49:01+00:00,365.7145,9.6,12.81,47.84626,-54.09684
2020-10-30 22:59:01+00:00,366.5996,9.6,12.81,47.84626,-54.09684
2020-10-30 23:09:01+00:00,373.5562,9.6,12.81,47.84626,-54.09684
2020-10-30 23:19:01+00:00,368.5229,9.56,12.65,47.84626,-54.09684
2020-10-30 23:29:01+00:00,360.0079,9.57,12.65,47.84626,-54.09684
2020-10-30 23:39:01+00:00,365.6596,9.56,12.65,47.84626,-54.09684
2020-10-30 23:49:01+00:00,372.8646,9.59,12.65,47.84626,-54.09684
2020-10-30 23:59:01+00:00,374.5613,9.6,12.65,47.84626,-54.09684
